Weather in Tumany

Russia / Kirov Oblast     57°41′51″N   50°51′29″E
temp.,
°C
wind,
m/s
gust,
m/s
humid.,
%
clouds,
%
prec.,
mm/h
press.,
hPa
HPBL,
m
14 april, wed
wed1400:00+5sw4699100 0.0 1031134
03:00+3s349879 0.0 103163
06:00+3s348872 0.0 103064
09:00+10ssw467216 0.0 1029203
12:00+14ssw57595 0.0 1028520
15:00+16ssw58595 0.0 1026772
18:00+13ssw33775 0.0 102526
21:00+10s348411 0.0 102446
15 april, thu
thu1500:00+8ssw36895 0.0 102387
03:00+7ssw35935 0.0 102274
06:00+8ssw36945 0.0 1021125
09:00+13ssw46761 0.0 1020430
12:00+16sw456551 0.0 10191081
15:00+17wsw456191 1.3 10181221
18:00+10nne91379100 3.3 1019469
21:00+6nne71380100 3.3 1022587
16 april, fri
fri1600:00+4ne7137889 0.0 1024646
03:00+4ne6117792 0.0 1025596
06:00+3ne612645 0.0 1027647
09:00+6ne68480 0.0 1028950
12:00+8ne66395 0.0 10281260
15:00+9ne563531 0.0 10281416
18:00+7nne35467 0.0 1028116
21:00+4nne34575 0.0 102855
17 april, sat
sat1700:00+2nne336210 0.0 102949
03:00+1nnw33665 0.0 102942
06:00+2nnw38680 0.0 1029233
09:00+6nnw68595 0.0 10281036
12:00+8n674991 0.0 10281733
15:00+8n674762 0.0 10281583
18:00+7nnw585254 0.0 1028310
21:00+4nnw512665 0.0 1029330
18 april, sun
sun1800:00+2nnw4117522 0.0 1030289
03:00+1nnw4108352 0.0 1030237
06:00+2nnw49805 0.0 1031383
09:00+6nnw586061 0.0 10311226
12:00+7n575986 0.0 10311398
15:00+7n676087 0.1 10311212
18:00+5n356416 0.0 1032289
21:00+2ne358337 0.0 103397